ONEWEB-0127, 47273

Orbit data source: Space-Track

ONEWEB-0127, 47273 is a payload satellite owned by One Web (UK) in LEO that was launched on Fri, 18 Dec 2020 UTC via a SOYUZ-2-1B launch vehicle from the Vostochny Cosmodrome (VOSTO). Payload-class satellites include a variety of spacecraft equipped with specific instruments for various scientific and technological missions. These include communications satellites like Starlink; space stations such as the ISS; scientific satellites like the Hubble; Earth observation satellites from companies like Planet Labs, Umbra, and HawkEye 360; GPS; miniature CubeSats for education and research; and military/defense satellites.

Loading next visibility...
Identifier
47273, 2020-100R
Orbit
LEO
Country
Flag of UKUK
Related business
Manufacturer
One Web
Mission
Operational Commercial Communications
Bus & Motor
ARROW, Unknown motor
Mass
148 kg wet, ~140 kg dry
Launch date (UTC)
2020-12-18 (5 years ago)
Launch vehicle
SOYUZ-2-1B
Launch site
Vostochny Cosmodrome (VOSTO)
Object type
Payload
Rocket body
Debris
Shape & HBR
Trap Box + 2 Pan, 6.7 m
Radar Cross Section
3.464 m², Large (>1 m²)

Expand to show TLE details & history
Last TLE update: 6 hours ago

TLE from 6 hours ago
0 ONEWEB-0127
1 47273U 20100R   26095.27834643  .00000493  00000-0  13363-2 0  9999
2 47273  87.9005   5.1544 0001841  73.6005 286.5326 13.12443712255167
Epoch: 2026-04-05T06:40Z
TLE epoch observation values (Epoch: 2026-04-05T06:40:49.131Z)
Latitude
-0.00001°
Longitude
71.36362°
Altitude
1,216.214 km
Speed
7.246 km/s
True Right ascension
00h 20m 37s
True Declination
0° 00' 00"
Sunlit
Object was in daylight at epoch
Visualization orbit readout
Latitude
Unknown
Longitude
Unknown
Altitude
Unknown
Speed
Unknown
Apparent Right ascension
Unknown
Apparent Declination
Unknown
Sunlit
N/A
Visualization observer readout
Local Sidereal Time
18:58:18
Azimuth
Unknown
Elevation
Unknown
Doppler factor
Unknown
Orbital elements
Apogee altitude
1,212.234 km
Perigee altitude
1,209.44 km
Semi-major axis
7,588.974 km
Eccentricity
0.00018
Inclination
87.9005°
RAAN
5.1544°
Arg. of periapsis
73.6005°
True anomaly
286.51237°
Mean anomaly
286.5326°
Eccentric anomaly
286.52249°
Mean motion
3.28298 °/min
Orbital period
109.66 mins
BSTAR
0.0013363
Loading maneuver chart data...
Computing Atmospheric mass density...
Loading historical data...
Loading historical data...
Loading historical data...
Loading historical data...
Loading historical data...
Loading historical data...
Loading historical data...

Documentation

Showing up to 5 results
|